TimeCDT,TemperatureF,Dew PointF,Humidity,Sea Level PressureIn,VisibilityMPH,Wind Direction,Wind SpeedMPH,Gust SpeedMPH,PrecipitationIn,Events,Conditions,WindDirDegrees,DateUTC
12:36 AM,80.6,78.8,94,29.77,10.0,East,12.7,19.6,0.00,,Partly Cloudy,80,2013-09-24 05:36:00
12:52 AM,81.0,80.1,97,29.78,10.0,ENE,9.2,-,0.00,,Clear,70,2013-09-24 05:52:00
1:44 AM,80.6,80.6,100,29.78,10.0,NNE,5.8,-,N/A,,Mostly Cloudy,30,2013-09-24 06:44:00
1:52 AM,80.1,80.1,100,29.78,10.0,NE,5.8,-,N/A,,Mostly Cloudy,50,2013-09-24 06:52:00
2:24 AM,80.6,78.8,94,29.78,10.0,ESE,3.5,-,N/A,,Mostly Cloudy,120,2013-09-24 07:24:00
2:43 AM,78.8,78.8,100,29.78,10.0,SSE,4.6,-,N/A,,Scattered Clouds,150,2013-09-24 07:43:00
2:52 AM,79.0,78.1,97,29.78,10.0,SE,4.6,-,N/A,,Partly Cloudy,140,2013-09-24 07:52:00
3:52 AM,79.0,77.0,94,29.78,10.0,Calm,Calm,-,N/A,,Clear,0,2013-09-24 08:52:00
4:52 AM,78.1,77.0,96,29.79,10.0,North,3.5,-,N/A,,Partly Cloudy,10,2013-09-24 09:52:00
5:52 AM,78.1,78.1,100,29.79,10.0,North,3.5,-,N/A,,Clear,360,2013-09-24 10:52:00
6:52 AM,78.1,77.0,96,29.80,10.0,NNE,5.8,-,N/A,,Clear,30,2013-09-24 11:52:00
7:52 AM,79.0,79.0,100,29.83,10.0,NNE,4.6,-,0.01,,Clear,30,2013-09-24 12:52:00
8:52 AM,82.0,80.1,94,29.83,10.0,NNE,5.8,-,N/A,,Clear,20,2013-09-24 13:52:00
9:35 AM,82.4,80.6,94,29.84,10.0,North,9.2,-,N/A,,Partly Cloudy,360,2013-09-24 14:35:00
9:52 AM,82.0,79.0,90,29.84,10.0,North,11.5,-,N/A,,Scattered Clouds,360,2013-09-24 14:52:00
10:18 AM,82.4,78.8,89,29.85,5.0,North,11.5,-,N/A,,Mostly Cloudy,360,2013-09-24 15:18:00
10:37 AM,82.4,80.6,94,29.85,7.0,North,9.2,-,N/A,,Scattered Clouds,360,2013-09-24 15:37:00
10:52 AM,82.9,80.1,91,29.85,7.0,NNE,8.1,-,N/A,,Scattered Clouds,30,2013-09-24 15:52:00
11:52 AM,84.0,78.1,82,29.85,10.0,North,8.1,-,N/A,,Scattered Clouds,360,2013-09-24 16:52:00
12:52 PM,87.1,77.0,72,29.83,10.0,North,9.2,-,N/A,,Scattered Clouds,360,2013-09-24 17:52:00
1:52 PM,87.1,75.9,69,29.82,10.0,North,8.1,-,N/A,,Scattered Clouds,350,2013-09-24 18:52:00
2:52 PM,88.0,78.1,72,29.80,10.0,North,12.7,-,N/A,,Scattered Clouds,350,2013-09-24 19:52:00
3:52 PM,89.1,78.1,70,29.79,10.0,North,11.5,-,N/A,,Partly Cloudy,360,2013-09-24 20:52:00
4:52 PM,89.1,75.9,65,29.78,10.0,North,10.4,-,N/A,,Clear,10,2013-09-24 21:52:00
5:52 PM,89.1,75.9,65,29.78,10.0,North,9.2,-,N/A,,Clear,10,2013-09-24 22:52:00
6:52 PM,86.0,75.9,72,29.78,10.0,North,6.9,-,N/A,,Clear,360,2013-09-24 23:52:00
7:52 PM,84.0,77.0,79,29.80,10.0,North,6.9,-,N/A,,Clear,10,2013-09-25 00:52:00
8:52 PM,82.9,77.0,82,29.82,10.0,East,4.6,-,N/A,,Clear,80,2013-09-25 01:52:00
9:52 PM,82.9,77.0,82,29.83,10.0,ENE,4.6,-,N/A,,Clear,70,2013-09-25 02:52:00
10:52 PM,82.0,77.0,85,29.84,10.0,ENE,4.6,-,N/A,,Clear,60,2013-09-25 03:52:00
11:52 PM,82.0,77.0,85,29.84,10.0,Calm,Calm,-,N/A,,Clear,0,2013-09-25 04:52:00